Del Norte, CO

3:56 AM MST on February 25, 2017 (GMT -0700)
WestMonteVista | | Change Station

Elev 7684 ft 37.59 °N, 106.17 °W | Updated 2 minutes ago

Clear
Clear
4.8 °F
Feels Like 5 °F
N
0.7
Wind Variable Wind from South
Gusts 2.2 mph

Today
High -- | Low -- °F
--% Chance of Precip.
Yesterday
High -- | Low -- °F
Precip. -- in
Pressure 29.98 in
Visibility 10.0 miles
Clouds Clear
Windchill 5 °F
Dew Point 2 °F
Humidity 87%
Rainfall 0.00 in
Snow Depth Not available.
6:41 AM 5:55 PM
Waning Crescent, 2% visible
METAR K04V 251033Z AUTO 32008KT 10SM CLR M12/M17 A2998 RMK AO2
Pressure 29.98 in
Visibility 10.0 miles
Clouds Clear
Windchill 5 °F
Dew Point 2 °F
Humidity 87%
Rainfall 0.00 in
Snow Depth Not available.
6:41 AM 5:55 PM
Waning Crescent, 2% visible
METAR K04V 251033Z AUTO 32008KT 10SM CLR M12/M17 A2998 RMK AO2

Get Your Daily Forecast Email!

Thanks for signing up!

Be on the lookout for a verification email in your inbox.

You'll start receiving the daily forecast at 8 AM.

×

10-Day Weather Forecast

Almanac

Astronomy

Feb. 25, 2017 Rise Set
Actual Time
Civil Twilight
Nautical Twilight
Astronomical Twilight
Moon
Length of Visible Light
Length of Day
Tomorrow will be .
, % of the Moon is Illuminated

Today's Extremes

State Highs State Lows

Community

WunderPhotos

Upload Photos

1,962,540 photos uploaded!

WunderBlog® & News

Nearby

Air Quality

  Air Quality AQ Index Pollutant
Not available.

Snow Depth

Station Depth Elevation

Earthquake Activity

City Distance Mag. Time & Date
Minimum magnitude displayed is 2.5.

Coastal Water Temperatures

Place Temperature

Stations

Nearby Weather Stations

Station Location Temp. Windchill Dew Point Humidity Wind Precip. Elev Updated Type
                   

Watches & Warnings

There are currently no watches in effect.